Weather in Ursk

Russia / Kemerovo Oblast     54°27′11″N   85°23′52″E
temp.,
°C
wind,
m/s
gust,
m/s
humid.,
%
clouds,
%
prec.,
mm/h
press.,
hPa
HPBL,
m
15 june, tue
tue1501:00+9wnw22850 0.0 101912
04:00+8wsw11855 0.0 101810
07:00+12e00775 0.0 101957
10:00+17ne0157100 0.0 1018503
13:00+20e1150100 0.0 1017845
16:00+20ne22559 0.0 1016559
19:00+20sse23685 0.0 1015209
22:00+15wsw358732 0.0 101582
16 june, wed
wed1601:00+13wsw3592100 0.2 101472
04:00+13wsw36933 0.1 101488
07:00+15sw510905 0.1 1013230
10:00+20wsw56725 0.0 1014551
13:00+23w456677 1.8 10131098
16:00+25w455446 0.0 10121869
19:00+22sw476884 0.1 1011319
22:00+16sse228682 2.3 101219
17 june, thu
thu1701:00+15ssw228862 2.9 101218
04:00+15s358784 0.6 101067
07:00+16ssw5129037 0.7 1010290
10:00+20sw51074100 0.0 1009567
13:00+23sw586242 0.3 10081324
16:00+21wsw5876100 1.9 1008811
19:00+20w3687100 5.1 1007398
22:00+15sw33922 0.4 100847
18 june, fri
fri1801:00+13sw379425 0.4 1007115
04:00+13sw38966 0.1 1006137
07:00+15wsw36942 0.2 1006160
10:00+20wsw3572100 0.2 1006635
13:00+22wnw355699 0.2 10051654
16:00+24w345497 0.0 10041643
19:00+23ene11715 0.3 1003319
22:00+17ssw22895 0.4 100327
19 june, sat
sat1901:00+14ssw38905 0.4 1002127
04:00+14s3795100 1.4 1001141
07:00+16ssw4119384 1.9 1001311
10:00+21sw587150 0.0 1001585
13:00+25sw245711 0.0 10001488
16:00+27sw345535 0.0 9981886
19:00+25s236937 0.2 998290
22:00+19sw4988100 1.7 999146